[[{"header":{"parameterUnit":"m.s-1","parameterCategory":1,"la1":30.2991,"la2":30.254,"lo1":-89.0895,"lo2":-89.0444,"dy":0.0017,"dx":0.0017,"nx":28,"ny":28,"refTime":"2024-07-18T03:00:00:Z","depth":0,"parameterNumber":2,"parameterNumberName":"U-component_of_WINDS"},"data":[0,0,0,0,0,0,0,0,0,0,0,0,0,0,0,0,0,0,0,0,0,0,0,0,0,0,0,0,0,0,0,0,0,0,0,0,0,0,0,0,0,0,0,0,0,0,0,0,0,0,0,0,0,0,0,0,0,0,3.3041,3.3042,0,3.313,3.3131,3.3132,3.3125,3.3123,3.3122,3.3121,3.3209,3.3212,3.3216,0,0,0,0,0,0,0,0,0,0,0,0,0,3.2862,3.2865,3.3041,3.3042,3.3044,3.313,3.3131,3.3132,3.3125,3.3123,3.3122,3.312,3.3207,3.3212,3.3216,0,0,0,0,0,0,0,0,0,0,0,0,0,3.2944,3.2866,3.3041,3.305,3.3052,3.313,3.3131,3.3133,3.3125,3.3123,3.3121,3.3119,3.3206,3.3211,3.3217,3.329,0,0,3.3233,3.3235,0,0,0,0,0,0,0,0,3.2939,3.2951,3.3048,3.305,3.3052,3.3114,3.31,3.3185,3.3126,3.3097,3.3121,3.3118,3.3179,3.3186,3.3207,3.3294,3.3298,3.3234,3.3237,3.3239,3.3241,0,0,0,0,0,0,0,3.2934,3.2947,3.3076,3.3049,3.3052,3.3049,3.3058,3.3116,3.3148,3.31,3.3099,3.311,3.3179,3.3202,3.3209,3.3299,3.3233,3.3238,3.3242,3.3244,3.3449,3.3451,0,0,0,0,0,0,3.2926,3.2942,3.3074,3.3079,3.299,3.3054,3.3064,3.3096,3.3147,3.3153,3.3112,3.3109,3.3194,3.3203,3.3212,3.33,3.3239,3.3244,3.3247,3.3447,3.345,3.3452,0,0,0,0,0,0,3.2922,3.2938,3.307,3.3011,3.3027,3.3059,3.3095,3.3099,3.3122,3.3157,3.3162,3.3129,3.3193,3.3205,3.3271,3.3303,3.3247,3.3252,3.3444,3.3448,3.3451,3.3477,0,0,0,0,0,0,3.2917,3.2937,3.2966,3.3011,3.303,3.3128,3.3097,3.3102,3.3131,3.3129,3.3174,3.318,3.3192,3.3263,3.3276,3.3309,3.3256,3.3441,3.3446,3.345,3.3473,3.348,3.3487,0,0,0,0,0,3.2911,3.2969,3.2967,3.2983,3.3067,3.313,3.314,3.3154,3.3134,3.3163,3.3185,3.3178,3.3298,3.3269,3.3284,3.332,3.3439,3.3445,3.3449,3.347,3.3479,3.3487,0,0,0,0,0,0,3.2926,3.2975,3.2974,3.3049,3.3085,3.3128,3.3165,3.3163,3.3205,3.3201,3.3216,3.3226,3.3292,3.3313,3.328,3.3393,3.3366,3.3374,3.3376,3.3385,3.3392,3.3384,3.326,0,0,0,0,0,3.2938,3.2986,3.3026,3.3088,3.3107,3.3133,3.3161,3.3168,3.3206,3.3221,3.3248,3.3284,3.3329,3.3359,3.3403,3.3477,3.3485,3.3508,3.3515,3.3521,3.3527,3.3566,3.3576,3.3468,3.3468,3.3468,0,0,3.2963,3.2996,3.3025,3.3092,3.3121,3.3168,3.3146,3.3197,3.3232,3.3228,3.3291,3.3313,3.3354,3.3424,3.3456,3.3443,3.3559,3.3527,3.3531,3.3534,3.3572,3.3582,3.3591,3.3472,3.3471,3.3471,0,0,3.3033,3.3064,3.3118,3.3148,3.3193,3.321,3.3223,3.3266,3.328,3.3345,3.3342,3.3383,3.3462,3.3491,3.3516,3.3596,3.3591,3.361,3.3645,3.3683,3.3691,3.3698,3.3725,3.3734,3.3617,3.3617,3.3617,0,3.3058,3.3131,3.3146,3.3198,3.3226,3.3226,3.328,3.3308,3.3364,3.3383,3.3369,3.3467,3.3494,3.357,3.3589,3.3611,3.3624,3.3604,3.3689,3.3697,3.3704,3.3729,3.3739,3.3619,3.3618,3.3618,3.3618,0,3.3159,3.3209,3.3247,3.3302,3.3335,3.3388,3.341,3.3441,3.3446,3.3464,3.3528,3.3562,3.3612,3.3631,3.3636,3.3707,3.3697,3.3686,3.3659,3.3715,3.3739,3.3749,3.3621,3.3621,3.362,3.362,0,0,3.3239,3.3302,3.3315,3.3339,3.3388,3.3427,3.3479,3.3528,3.3554,3.3593,3.3636,3.3702,3.3692,3.372,3.3728,3.3762,3.382,3.3746,3.3747,3.3756,3.3898,3.3904,3.3915,3.3818,3.382,3.3822,3.3893,0,3.3311,3.3404,3.342,3.3501,3.3546,3.3547,3.3592,3.3626,3.3644,3.3684,3.3705,3.375,3.3735,3.3751,3.3785,3.3806,3.3848,3.3802,3.3856,3.3857,3.3843,3.3928,3.3935,3.4001,3.3903,3.3905,3.3906,0,3.3408,3.345,3.3536,3.3578,3.3597,3.3638,3.3683,3.3723,3.3761,3.3772,3.3803,3.3808,3.386,3.3833,3.3904,3.3872,3.3895,3.3909,3.3912,3.3915,3.3883,3.3931,3.4023,3.4031,3.3921,3.392,3.3919,0,3.3455,3.3533,3.3594,3.3615,3.3666,3.3694,3.3716,3.3753,3.3781,3.3821,3.3839,3.3885,3.3909,3.3944,3.3959,3.3938,3.4029,3.4003,3.4037,3.4037,3.4054,3.4052,3.4148,3.4074,3.4074,3.4074,3.4073,0,3.3533,3.3584,3.3615,3.3652,3.3709,3.3726,3.3782,3.3804,3.3836,3.3876,3.3881,3.3918,3.3938,3.3978,3.3991,3.4046,3.4058,3.4067,3.4069,3.4065,3.4063,3.4078,3.4073,3.4076,3.4076,3.4075,3.4075,0,3.3593,3.3616,3.3682,3.3726,3.3738,3.3778,3.3814,3.3849,3.3868,3.3918,3.3931,3.396,3.4007,3.4027,3.4085,3.4094,3.4157,3.4157,3.4144,3.4144,3.4176,3.4171,3.4282,3.4297,3.4215,3.4216,3.4217,0,3.364,3.368,3.3728,3.3755,3.3779,3.3823,3.3852,3.387,3.39,3.3947,3.3976,3.4023,3.4062,3.4137,3.4162,3.4206,3.4206,3.4242,3.4212,3.4206,3.4203,3.42,3.4202,3.4246,3.4247,3.4248,3.4248,0,3.372,3.373,3.3772,3.3818,3.3853,3.389,3.3926,3.3948,3.3971,3.4004,3.4053,3.4083,3.4142,3.4189,3.4234,3.4256,3.4255,3.4258,3.4267,3.4262,3.4252,3.4255,3.4155,3.4254,3.4254,3.4253,3.4253,3.4253,3.3774,3.3809,3.3847,3.3894,3.3923,3.3956,3.3991,3.4014,3.4056,3.4105,3.4114,3.4165,3.4201,3.4262,3.4286,3.4325,3.4316,3.4331,3.4334,3.4337,3.4338,3.4248,3.4334,3.4334,3.4334,3.4334,3.4334,0,3.3852,3.3877,3.392,3.397,3.4006,3.4005,3.4044,3.4074,3.4119,3.4154,3.4192,3.4247,3.4292,3.4321,3.4366,3.4392,3.4392,3.4403,3.4399,3.4404,3.4345,3.433,3.4401,3.4401,3.4401,3.4401,3.4401,3.4401,3.3896,3.3954,3.3968,3.404,3.4065,3.4115,3.4138,3.4168,3.4196,3.4257,3.4295,3.4314,3.4345,3.4393,3.4433,3.444,3.4455,3.4466,3.4472,3.4416,3.4408,3.4402,3.4388,3.447,3.447,3.4528,3.4528,3.4529]},{"header":{"parameterUnit":"m.s-1","parameterCategory":1,"la1":30.2991,"la2":30.254,"lo1":-89.0895,"lo2":-89.0444,"dy":0.0017,"dx":0.0017,"nx":28,"ny":28,"refTime":"2024-07-18T03:00:00:Z","depth":0,"parameterNumber":3,"parameterNumberName":"V-component_of_WINDS"},"data":[0,0,0,0,0,0,0,0,0,0,0,0,0,0,0,0,0,0,0,0,0,0,0,0,0,0,0,0,0,0,0,0,0,0,0,0,0,0,0,0,0,0,0,0,0,0,0,0,0,0,0,0,0,0,0,0,0,0,1.739,1.7392,0,1.7598,1.76,1.7602,1.7664,1.7663,1.7662,1.7661,1.7871,1.7877,1.7883,0,0,0,0,0,0,0,0,0,0,0,0,0,1.7043,1.7049,1.739,1.7392,1.7395,1.7597,1.76,1.7603,1.7664,1.7663,1.7662,1.7661,1.7868,1.7876,1.7884,0,0,0,0,0,0,0,0,0,0,0,0,0,1.7216,1.7051,1.7389,1.745,1.7458,1.7597,1.76,1.7604,1.7665,1.7663,1.7661,1.766,1.7866,1.7875,1.7885,1.7978,0,0,1.7915,1.792,0,0,0,0,0,0,0,0,1.7206,1.7229,1.7439,1.7446,1.7455,1.7603,1.7555,1.7729,1.7665,1.7586,1.7661,1.7659,1.7783,1.7799,1.7842,1.7988,1.7997,1.7916,1.7922,1.7926,1.7929,0,0,0,0,0,0,0,1.7194,1.722,1.7472,1.7442,1.7452,1.7466,1.7489,1.7588,1.7691,1.7593,1.7598,1.7622,1.7787,1.7832,1.7847,1.8,1.7916,1.7925,1.7931,1.7935,1.823,1.8232,0,0,0,0,0,0,1.7172,1.721,1.7465,1.7478,1.7324,1.7473,1.7499,1.7557,1.769,1.7709,1.7623,1.7624,1.7816,1.7836,1.7855,1.7972,1.7926,1.7935,1.7941,1.8228,1.8231,1.8233,0,0,0,0,0,0,1.7164,1.7194,1.7457,1.7345,1.738,1.7481,1.7546,1.7562,1.7608,1.7713,1.7731,1.765,1.7816,1.7841,1.7947,1.798,1.794,1.7949,1.8226,1.8229,1.8232,1.8206,0,0,0,0,0,0,1.7154,1.7191,1.7229,1.7346,1.7386,1.7547,1.7548,1.7567,1.7625,1.7628,1.7743,1.7761,1.7816,1.7932,1.7956,1.7993,1.7957,1.8224,1.8227,1.8231,1.8204,1.8208,1.821,0,0,0,0,0,1.7142,1.7213,1.723,1.7261,1.7435,1.7549,1.7571,1.7635,1.7627,1.7665,1.7732,1.7757,1.7972,1.7942,1.797,1.801,1.8222,1.8226,1.8231,1.8203,1.8207,1.821,0,0,0,0,0,0,1.7096,1.7229,1.725,1.7362,1.7443,1.7559,1.7609,1.7637,1.7722,1.7721,1.7795,1.782,1.7921,1.7976,1.794,1.8106,1.8097,1.8108,1.8067,1.8071,1.8074,1.8059,1.7965,0,0,0,0,0,1.7099,1.7182,1.7293,1.738,1.742,1.7507,1.7559,1.7601,1.7688,1.7723,1.7798,1.788,1.7966,1.8022,1.8107,1.8212,1.8237,1.8253,1.8256,1.8258,1.8266,1.8325,1.8333,1.8247,1.8247,1.8247,0,0,1.7106,1.7189,1.7237,1.7373,1.7442,1.7524,1.7536,1.7623,1.7685,1.7736,1.7841,1.7898,1.7995,1.8101,1.8151,1.815,1.8295,1.8263,1.8264,1.8272,1.833,1.8338,1.8345,1.825,1.825,1.8249,0,0,1.7161,1.7232,1.7313,1.7381,1.7484,1.7541,1.756,1.7672,1.7712,1.7818,1.7858,1.7931,1.8078,1.8146,1.8199,1.8277,1.8303,1.8302,1.8319,1.8375,1.8382,1.8388,1.8416,1.8425,1.831,1.831,1.831,0,1.7157,1.7285,1.735,1.7436,1.7494,1.7544,1.7625,1.7688,1.7813,1.7851,1.7848,1.8033,1.8102,1.8223,1.8242,1.8284,1.8307,1.8291,1.8376,1.8383,1.839,1.8417,1.8427,1.8309,1.8309,1.8309,1.831,0,1.7273,1.7361,1.7413,1.7534,1.7598,1.768,1.7758,1.7814,1.7849,1.7906,1.8012,1.8096,1.8199,1.8231,1.8266,1.8357,1.8353,1.8362,1.8355,1.8396,1.8423,1.8434,1.8308,1.8309,1.8309,1.8309,0,0,1.7308,1.7463,1.7481,1.7536,1.7653,1.7721,1.7804,1.7906,1.7952,1.8036,1.8108,1.823,1.8239,1.8299,1.8342,1.8391,1.8447,1.8394,1.8397,1.8401,1.8552,1.8545,1.8556,1.8464,1.8466,1.8468,1.8544,0,1.7378,1.7532,1.7593,1.7717,1.7798,1.7846,1.7918,1.7997,1.8051,1.8127,1.8186,1.8272,1.8277,1.8313,1.8364,1.8429,1.8478,1.8424,1.8531,1.8534,1.8506,1.8571,1.8564,1.8632,1.8555,1.8557,1.8558,0,1.7482,1.7567,1.77,1.7806,1.7842,1.7906,1.8003,1.8075,1.8164,1.82,1.8266,1.8306,1.8394,1.838,1.8502,1.8464,1.851,1.8548,1.8553,1.8566,1.8549,1.8586,1.8655,1.8665,1.8575,1.8574,1.8573,0,1.7494,1.7642,1.774,1.7785,1.7911,1.7955,1.8009,1.8097,1.8153,1.8237,1.8274,1.8366,1.8417,1.8487,1.8549,1.8534,1.8665,1.8657,1.8697,1.8695,1.8723,1.8721,1.8801,1.8752,1.8751,1.8751,1.8751,0,1.7567,1.7646,1.7747,1.7808,1.7897,1.7965,1.8051,1.8108,1.8185,1.8257,1.8302,1.8368,1.8446,1.8521,1.857,1.8663,1.8686,1.8716,1.8729,1.8713,1.8709,1.8746,1.8743,1.8754,1.8753,1.8753,1.8752,0,1.7596,1.7667,1.7778,1.7887,1.7916,1.7977,1.8071,1.813,1.8186,1.8275,1.83,1.8387,1.8478,1.8547,1.8664,1.8697,1.8796,1.8809,1.8766,1.8773,1.8809,1.8805,1.8916,1.8934,1.8871,1.8872,1.8872,0,1.7639,1.7701,1.7817,1.7868,1.7922,1.8005,1.8062,1.813,1.8188,1.8294,1.834,1.8434,1.8513,1.8655,1.8728,1.8818,1.8833,1.8866,1.8847,1.8829,1.8834,1.883,1.8836,1.8869,1.8869,1.887,1.887,0,1.7706,1.7738,1.782,1.7914,1.7982,1.8059,1.8137,1.8176,1.8257,1.832,1.8414,1.8475,1.8594,1.8687,1.8783,1.8838,1.8867,1.8875,1.8889,1.8874,1.8847,1.8863,1.8774,1.8872,1.8872,1.8872,1.8872,1.8872,1.7744,1.7801,1.7892,1.7981,1.8047,1.8118,1.8179,1.8242,1.8322,1.8426,1.846,1.8557,1.8642,1.8775,1.883,1.8906,1.8906,1.8926,1.8932,1.8936,1.8935,1.8834,1.8923,1.8923,1.8923,1.8923,1.8923,0,1.7815,1.7875,1.7956,1.8064,1.8134,1.8155,1.8242,1.8299,1.8383,1.8461,1.8538,1.8644,1.8734,1.8813,1.8905,1.895,1.8966,1.8972,1.897,1.8982,1.8929,1.8908,1.8958,1.8958,1.8958,1.8958,1.8958,1.8958,1.786,1.7957,1.7999,1.8129,1.8188,1.8284,1.8331,1.8397,1.8459,1.8577,1.8651,1.8703,1.8781,1.8879,1.8961,1.8982,1.9014,1.9017,1.9041,1.899,1.8986,1.8982,1.8962,1.9023,1.9023,1.9088,1.9089,1.9089]}]]